[[{"header":{"parameterUnit":"m.s-1","parameterCategory":1,"la1":30.2991,"la2":30.254,"lo1":-89.0895,"lo2":-89.0444,"dy":0.0017,"dx":0.0017,"nx":28,"ny":28,"refTime":"2023-03-16T21:00:00:Z","depth":0,"parameterNumber":2,"parameterNumberName":"U-component_of_WINDS"},"data":[0,0,0,0,0,0,0,0,0,0,0,0,0,0,0,0,0,0,0,0,0,0,0,0,0,0,0,0,0,0,0,0,0,0,0,0,0,0,0,0,0,0,0,0,0,0,0,0,0,0,0,0,0,0,0,0,0,0,-0.7098,-0.7098,0,-0.7073,-0.7073,-0.7073,-0.707,-0.707,-0.707,-0.7071,-0.7045,-0.7044,-0.7043,0,0,0,0,0,0,0,0,0,0,0,0,0,-0.7143,-0.7142,-0.7098,-0.7098,-0.7098,-0.7073,-0.7073,-0.7073,-0.707,-0.707,-0.7071,-0.7071,-0.7045,-0.7044,-0.7043,0,0,0,0,0,0,0,0,0,0,0,0,0,-0.7122,-0.7142,-0.7098,-0.7093,-0.7093,-0.7073,-0.7073,-0.7073,-0.707,-0.707,-0.7071,-0.7071,-0.7046,-0.7044,-0.7043,-0.7027,0,0,-0.7039,-0.7038,0,0,0,0,0,0,0,0,-0.7123,-0.712,-0.7094,-0.7094,-0.7093,-0.7075,-0.7079,-0.7057,-0.707,-0.7078,-0.7071,-0.7071,-0.7055,-0.7052,-0.7047,-0.7026,-0.7025,-0.7038,-0.7038,-0.7037,-0.7037,0,0,0,0,0,0,0,-0.7124,-0.7121,-0.7088,-0.7094,-0.7093,-0.7092,-0.709,-0.7075,-0.7065,-0.7078,-0.7077,-0.7075,-0.7054,-0.7048,-0.7046,-0.7024,-0.7039,-0.7037,-0.7036,-0.7036,-0.6988,-0.6988,0,0,0,0,0,0,-0.7127,-0.7122,-0.7089,-0.7088,-0.7109,-0.7091,-0.7088,-0.708,-0.7065,-0.7063,-0.7074,-0.7075,-0.7051,-0.7048,-0.7045,-0.7026,-0.7037,-0.7036,-0.7035,-0.6989,-0.6988,-0.6988,0,0,0,0,0,0,-0.7128,-0.7124,-0.709,-0.7105,-0.71,-0.709,-0.7081,-0.708,-0.7074,-0.7062,-0.706,-0.707,-0.7051,-0.7047,-0.7032,-0.7025,-0.7035,-0.7034,-0.6989,-0.6989,-0.6988,-0.6986,0,0,0,0,0,0,-0.7129,-0.7124,-0.7118,-0.7105,-0.71,-0.7077,-0.7081,-0.7079,-0.7072,-0.7072,-0.7058,-0.7056,-0.7051,-0.7034,-0.703,-0.7023,-0.7033,-0.699,-0.6989,-0.6988,-0.6987,-0.6986,-0.6985,0,0,0,0,0,-0.7131,-0.7118,-0.7118,-0.7114,-0.7092,-0.7076,-0.7073,-0.7068,-0.7071,-0.7065,-0.7057,-0.7056,-0.7026,-0.7032,-0.7028,-0.7021,-0.699,-0.6989,-0.6988,-0.6987,-0.6986,-0.6985,0,0,0,0,0,0,-0.7131,-0.7117,-0.7116,-0.7099,-0.7089,-0.7076,-0.7068,-0.7066,-0.7055,-0.7056,-0.7049,-0.7046,-0.703,-0.7024,-0.7031,-0.7004,-0.7008,-0.7007,-0.7009,-0.7008,-0.7006,-0.7008,-0.7032,0,0,0,0,0,-0.7129,-0.7118,-0.7106,-0.7092,-0.7087,-0.7078,-0.7071,-0.7068,-0.7057,-0.7053,-0.7044,-0.7034,-0.7022,-0.7015,-0.7003,-0.6986,-0.6983,-0.6979,-0.6978,-0.6977,-0.6975,-0.6966,-0.6964,-0.6985,-0.6985,-0.6985,0,0,-0.7125,-0.7116,-0.7109,-0.7092,-0.7084,-0.7072,-0.7075,-0.7062,-0.7054,-0.7051,-0.7036,-0.7029,-0.7017,-0.7,-0.6993,-0.6995,-0.6969,-0.6975,-0.6975,-0.6974,-0.6964,-0.6963,-0.6961,-0.6984,-0.6984,-0.6984,0,0,-0.7112,-0.7104,-0.7092,-0.7084,-0.7071,-0.7066,-0.7063,-0.705,-0.7045,-0.703,-0.7028,-0.7017,-0.6997,-0.6988,-0.6981,-0.6965,-0.6964,-0.6962,-0.6955,-0.6946,-0.6945,-0.6943,-0.6937,-0.6935,-0.696,-0.696,-0.696,0,-0.7109,-0.7092,-0.7086,-0.7073,-0.7066,-0.7063,-0.7051,-0.7043,-0.7027,-0.7022,-0.7025,-0.6999,-0.6991,-0.6972,-0.6968,-0.6963,-0.6959,-0.6963,-0.6945,-0.6944,-0.6942,-0.6937,-0.6935,-0.696,-0.696,-0.696,-0.696,0,-0.7088,-0.7076,-0.7068,-0.7053,-0.7044,-0.7032,-0.7024,-0.7016,-0.7014,-0.7008,-0.6992,-0.6982,-0.6968,-0.6963,-0.696,-0.6944,-0.6946,-0.6947,-0.6951,-0.694,-0.6935,-0.6933,-0.696,-0.696,-0.696,-0.696,0,0,-0.7075,-0.7057,-0.7054,-0.7047,-0.7033,-0.7024,-0.7011,-0.6998,-0.6992,-0.6981,-0.697,-0.6953,-0.6954,-0.6946,-0.6942,-0.6934,-0.6922,-0.6936,-0.6936,-0.6934,-0.6904,-0.6903,-0.6901,-0.6921,-0.6921,-0.692,-0.6905,0,-0.7061,-0.7038,-0.7033,-0.7014,-0.7002,-0.6999,-0.6988,-0.6979,-0.6973,-0.6962,-0.6956,-0.6944,-0.6946,-0.6941,-0.6933,-0.6925,-0.6916,-0.6926,-0.6911,-0.6911,-0.6914,-0.6898,-0.6897,-0.6883,-0.6902,-0.6902,-0.6902,0,-0.7041,-0.703,-0.701,-0.6997,-0.6992,-0.6982,-0.697,-0.696,-0.6949,-0.6945,-0.6936,-0.6933,-0.692,-0.6925,-0.6906,-0.6914,-0.6907,-0.6902,-0.6902,-0.69,-0.6906,-0.6896,-0.6878,-0.6876,-0.6898,-0.6899,-0.6899,0,-0.7033,-0.7013,-0.6999,-0.6993,-0.6978,-0.6971,-0.6965,-0.6954,-0.6946,-0.6935,-0.693,-0.6918,-0.6911,-0.6901,-0.6895,-0.6899,-0.6877,-0.6881,-0.6873,-0.6874,-0.6869,-0.6869,-0.685,-0.6865,-0.6865,-0.6865,-0.6865,0,-0.7018,-0.7006,-0.6995,-0.6986,-0.6972,-0.6966,-0.6952,-0.6946,-0.6936,-0.6926,-0.6923,-0.6913,-0.6905,-0.6894,-0.6889,-0.6874,-0.6871,-0.6868,-0.6867,-0.6868,-0.6869,-0.6864,-0.6865,-0.6864,-0.6864,-0.6864,-0.6865,0,-0.7007,-0.7,-0.6983,-0.6971,-0.6967,-0.6958,-0.6947,-0.6938,-0.6932,-0.6918,-0.6915,-0.6905,-0.6892,-0.6885,-0.6869,-0.6865,-0.6849,-0.6848,-0.6853,-0.6852,-0.6845,-0.6846,-0.6822,-0.6818,-0.6835,-0.6835,-0.6835,0,-0.6998,-0.6988,-0.6974,-0.6967,-0.6961,-0.6949,-0.6941,-0.6934,-0.6926,-0.6913,-0.6906,-0.6893,-0.6882,-0.6861,-0.6853,-0.684,-0.6839,-0.6832,-0.6837,-0.6839,-0.6839,-0.684,-0.6839,-0.6831,-0.6831,-0.6831,-0.683,0,-0.6982,-0.6979,-0.6968,-0.6955,-0.6946,-0.6936,-0.6926,-0.692,-0.6911,-0.6903,-0.689,-0.6881,-0.6865,-0.6852,-0.6838,-0.6831,-0.6829,-0.6829,-0.6826,-0.6828,-0.6831,-0.6829,-0.685,-0.6829,-0.6829,-0.683,-0.683,-0.683,-0.6972,-0.6963,-0.6952,-0.694,-0.6931,-0.6922,-0.6913,-0.6906,-0.6895,-0.6881,-0.6877,-0.6863,-0.6852,-0.6834,-0.6827,-0.6816,-0.6818,-0.6814,-0.6813,-0.6812,-0.6812,-0.6833,-0.6814,-0.6814,-0.6814,-0.6814,-0.6814,0,-0.6956,-0.6949,-0.6937,-0.6923,-0.6914,-0.6912,-0.6901,-0.6893,-0.6881,-0.6871,-0.686,-0.6845,-0.6833,-0.6823,-0.681,-0.6803,-0.6802,-0.68,-0.68,-0.6799,-0.6812,-0.6815,-0.6801,-0.6801,-0.6801,-0.6801,-0.6801,-0.6801,-0.6947,-0.6932,-0.6927,-0.6909,-0.6901,-0.6888,-0.6881,-0.6873,-0.6865,-0.6848,-0.6837,-0.6831,-0.6821,-0.6807,-0.6796,-0.6793,-0.6789,-0.6787,-0.6784,-0.6796,-0.6798,-0.6799,-0.6802,-0.6786,-0.6786,-0.6772,-0.6772,-0.6772]},{"header":{"parameterUnit":"m.s-1","parameterCategory":1,"la1":30.2991,"la2":30.254,"lo1":-89.0895,"lo2":-89.0444,"dy":0.0017,"dx":0.0017,"nx":28,"ny":28,"refTime":"2023-03-16T21:00:00:Z","depth":0,"parameterNumber":3,"parameterNumberName":"V-component_of_WINDS"},"data":[0,0,0,0,0,0,0,0,0,0,0,0,0,0,0,0,0,0,0,0,0,0,0,0,0,0,0,0,0,0,0,0,0,0,0,0,0,0,0,0,0,0,0,0,0,0,0,0,0,0,0,0,0,0,0,0,0,0,6.6331,6.6333,0,6.6469,6.647,6.6472,6.6438,6.6435,6.6433,6.643,6.6567,6.6573,6.6579,0,0,0,0,0,0,0,0,0,0,0,0,0,6.6035,6.6041,6.6331,6.6333,6.6335,6.6469,6.647,6.6472,6.6439,6.6435,6.6432,6.6429,6.6565,6.6572,6.658,0,0,0,0,0,0,0,0,0,0,0,0,0,6.6167,6.6042,6.6331,6.6334,6.6336,6.6468,6.6471,6.6473,6.6439,6.6435,6.6431,6.6427,6.6563,6.6571,6.6581,6.6717,0,0,6.6609,6.6613,0,0,0,0,0,0,0,0,6.616,6.6178,6.6332,6.6334,6.6336,6.6432,6.6416,6.6555,6.644,6.64,6.643,6.6426,6.6525,6.6537,6.6572,6.6724,6.6729,6.6609,6.6615,6.6619,6.6622,0,0,0,0,0,0,0,6.6151,6.6172,6.6385,6.6334,6.6337,6.6327,6.6342,6.6442,6.6483,6.6403,6.6401,6.6418,6.6525,6.6563,6.6575,6.6731,6.6609,6.6617,6.6623,6.6627,6.7002,6.7007,0,0,0,0,0,0,6.614,6.6164,6.6381,6.639,6.6236,6.6336,6.6352,6.6405,6.6482,6.649,6.6421,6.6416,6.6549,6.6564,6.6579,6.6745,6.6619,6.6627,6.6633,6.6998,6.7003,6.7008,0,0,0,0,0,0,6.6134,6.616,6.6375,6.6277,6.6303,6.6345,6.6406,6.641,6.6448,6.6496,6.6502,6.6452,6.6547,6.6566,6.6683,6.6749,6.6632,6.664,6.6993,6.7,6.7006,6.7076,0,0,0,0,0,0,6.6126,6.6158,6.6211,6.6278,6.6309,6.6479,6.641,6.6416,6.6464,6.6458,6.6526,6.6534,6.6545,6.667,6.6693,6.6759,6.6647,6.6987,6.6996,6.7004,6.7068,6.7084,6.7098,0,0,0,0,0,6.6115,6.6224,6.6214,6.624,6.6377,6.6483,6.65,6.6512,6.6469,6.6523,6.6554,6.6532,6.6738,6.6682,6.6707,6.6778,6.6983,6.6993,6.7003,6.7061,6.7081,6.7098,0,0,0,0,0,0,6.6162,6.6233,6.6222,6.6357,6.6414,6.6477,6.6545,6.6532,6.6602,6.6594,6.6604,6.6619,6.6739,6.677,6.6707,6.6914,6.6854,6.687,6.689,6.6909,6.6924,6.6914,6.6655,0,0,0,0,0,6.6189,6.6271,6.6327,6.644,6.647,6.6503,6.6549,6.6553,6.6613,6.6636,6.6676,6.6733,6.681,6.6861,6.6935,6.7072,6.7086,6.7133,6.7148,6.716,6.7174,6.7248,6.727,6.7041,6.7041,6.7041,0,0,6.6244,6.6292,6.6343,6.6451,6.6496,6.658,6.6523,6.6613,6.6675,6.6649,6.6763,6.6794,6.6858,6.6986,6.7044,6.7016,6.724,6.7173,6.7183,6.7189,6.7261,6.7283,6.7302,6.7048,6.7047,6.7046,0,0,6.6386,6.6432,6.6531,6.6578,6.6647,6.6668,6.6692,6.6757,6.6777,6.6891,6.6874,6.6946,6.708,6.7127,6.7168,6.7329,6.7311,6.7352,6.7431,6.7504,6.7522,6.7538,6.7595,6.7616,6.7365,6.7366,6.7366,0,6.6445,6.6572,6.6583,6.6676,6.6724,6.6706,6.6806,6.685,6.6939,6.6972,6.6939,6.7107,6.7149,6.7288,6.7327,6.7361,6.7388,6.7345,6.7519,6.7535,6.755,6.7605,6.7626,6.737,6.737,6.7369,6.7369,0,6.6641,6.6728,6.68,6.6889,6.6944,6.704,6.7065,6.712,6.712,6.7144,6.726,6.731,6.7394,6.7427,6.7427,6.7566,6.7546,6.7516,6.7456,6.7576,6.7628,6.7649,6.7377,6.7375,6.7374,6.7373,0,0,6.6817,6.6911,6.6937,6.6977,6.7053,6.712,6.7215,6.7298,6.7345,6.7407,6.7487,6.76,6.7573,6.762,6.7624,6.7688,6.7813,6.765,6.7652,6.7679,6.7969,6.7992,6.8016,6.7802,6.7806,6.7809,6.7964,0,6.6966,6.7135,6.7148,6.7299,6.738,6.7365,6.7447,6.7501,6.7526,6.7598,6.7624,6.7705,6.7663,6.7691,6.7754,6.7785,6.7871,6.7773,6.7875,6.7878,6.786,6.8043,6.8068,6.8212,6.7984,6.7988,6.799,0,6.7163,6.7233,6.7393,6.7457,6.7491,6.7566,6.7643,6.7712,6.7773,6.7787,6.784,6.7836,6.7932,6.7868,6.8001,6.7934,6.7976,6.7997,6.8003,6.8013,6.7942,6.8058,6.8258,6.828,6.8022,6.802,6.8017,0,6.7276,6.741,6.7523,6.7557,6.7635,6.7688,6.7722,6.7779,6.7829,6.7897,6.7929,6.8006,6.8048,6.8108,6.8125,6.8077,6.8257,6.8194,6.827,6.827,6.8309,6.8306,6.8518,6.8336,6.8335,6.8335,6.8334,0,6.7442,6.754,6.7575,6.7644,6.7754,6.7767,6.7875,6.7906,6.7958,6.8032,6.8022,6.8092,6.811,6.8183,6.8196,6.8304,6.8323,6.8336,6.8339,6.8337,6.8336,6.8365,6.8356,6.8341,6.8339,6.8338,6.8337,0,6.7586,6.7614,6.7736,6.78,6.7818,6.7896,6.795,6.8016,6.804,6.8135,6.8158,6.8195,6.828,6.8303,6.8404,6.8413,6.854,6.8533,6.852,6.852,6.8595,6.8588,6.8833,6.8866,6.8662,6.8664,6.8665,0,6.7691,6.7766,6.7839,6.7889,6.7926,6.8006,6.8057,6.8073,6.8127,6.8202,6.8259,6.8344,6.8412,6.8549,6.8585,6.8662,6.8657,6.8738,6.8669,6.8665,6.8659,6.8654,6.8662,6.8751,6.8753,6.8755,6.8756,0,6.7873,6.7882,6.7957,6.8037,6.8098,6.8161,6.8222,6.8263,6.8287,6.8347,6.8435,6.8489,6.8593,6.8677,6.8756,6.879,6.8778,6.8778,6.88,6.8799,6.8789,6.8796,6.8556,6.8772,6.8771,6.8769,6.8769,6.8768,6.8001,6.8067,6.8129,6.8212,6.826,6.8316,6.8382,6.8415,6.8489,6.8576,6.8581,6.8676,6.8735,6.884,6.8879,6.8953,6.8929,6.896,6.8968,6.8975,6.8982,6.8777,6.8967,6.8967,6.8966,6.8966,6.8966,0,6.8182,6.8221,6.8298,6.8384,6.8449,6.8433,6.8499,6.8554,6.8639,6.8696,6.8764,6.8865,6.8946,6.8988,6.9069,6.912,6.9117,6.9141,6.9138,6.9146,6.8999,6.8973,6.9143,6.9143,6.9143,6.9143,6.9143,6.9143,6.8285,6.8397,6.8414,6.8549,6.8587,6.8682,6.8721,6.8773,6.8818,6.8932,6.9,6.9028,6.9078,6.9163,6.9237,6.9247,6.9277,6.9305,6.9312,6.9174,6.9156,6.9139,6.9114,6.9311,6.9311,6.9452,6.9453,6.9454]}]]